This is the latest recevied weather packets stored in our database for station/object JF2ZGN-13. If no packets are shown the sender has not sent any weather packets the latest 10 day(s).
| Time | Temp. | Humidity | Pressure | Rain* | Wind** | Luminosity | Snow |
|---|---|---|---|---|---|---|---|
| 1787418810 | 19.44° C | 39% | 912.7 hPa | 0 mm | - | - | - |
| 1787418209 | 20° C | 42% | 912.7 hPa | 0 mm | - | - | - |
| 1787417608 | 20° C | 44% | 912.7 hPa | 0 mm | - | - | - |
| 1787417008 | 20° C | 47% | 912.7 hPa | 0 mm | - | - | - |
| 1787416407 | 20.56° C | 47% | 912.9 hPa | 0 mm | - | - | - |
| 1787415807 | 20.56° C | 40% | 912.9 hPa | 0 mm | - | - | - |
| 1787415207 | 21.11° C | 43% | 913 hPa | 0 mm | - | - | - |
| 1787414606 | 21.11° C | 40% | 913.1 hPa | 0 mm | - | - | - |
| 1787414006 | 20.56° C | 38% | 913.1 hPa | 0 mm | - | - | - |
| 1787413405 | 20.56° C | 37% | 913.2 hPa | 0 mm | - | - | - |
| 1787412805 | 20.56° C | 35% | 913.3 hPa | 0 mm | - | - | - |
| 1787412205 | 20.56° C | 27% | 913.4 hPa | 0 mm | - | - | - |
| 1787411004 | 20.56° C | 38% | 913.4 hPa | 0 mm | - | - | - |
| 1787410403 | 20° C | 39% | 913.4 hPa | 4.06 mm | - | - | - |
| 1787409803 | 20° C | 39% | 913.5 hPa | 4.06 mm | - | - | - |
| 1787409202 | 19.44° C | 42% | 913.6 hPa | 4.06 mm | - | - | - |
| 1787408602 | 19.44° C | 43% | 913.6 hPa | 4.06 mm | - | - | - |
| 1787408002 | 19.44° C | 41% | 913.6 hPa | 4.06 mm | - | - | - |
| 1787407401 | 19.44° C | 41% | 913.6 hPa | 4.06 mm | - | - | - |
| 1787406800 | 19.44° C | 42% | 913.6 hPa | 4.06 mm | - | - | - |
| 1787406201 | 19.44° C | 42% | 913.8 hPa | 4.06 mm | - | - | - |
| 1787405599 | 19.44° C | 41% | 913.8 hPa | 4.06 mm | - | - | - |
| 1787404999 | 20° C | 44% | 913.5 hPa | 4.06 mm | - | - | - |
| 1787404398 | 20° C | 44% | 913.8 hPa | 3.81 mm | - | - | - |
| 1787403798 | 20° C | 44% | 913.8 hPa | 3.81 mm | - | - | - |
* Rain since midnight (hover to see other rain measurements)
** Current wind speed in m/s (hover to see current wind gust speed)